Change the Weather History Date:

Saturday, August 2, 2014

  Actual Average Record
Temperature  
Mean Temperature 74 °F -  
Max Temperature 83 °F 85 °F 96 °F (2012)
Min Temperature 66 °F 68 °F 62 °F (1997)
Cooling Degree Days 9    
Growing Degree Days 24 (Base 50)    
Moisture  
Dew Point 66 °F    
Average Humidity 82    
Maximum Humidity 94    
Minimum Humidity 58    
Precipitation  
Precipitation 0.01 in - - ()
Sea Level Pressure  
Sea Level Pressure 30.08 in    
Wind  
Wind Speed 5 mph (East)    
Max Wind Speed 8 mph    
Max Gust Speed -    
Visibility 10 miles    
Events Rain    
Averages and records for this station are not official NWS values.
T = Trace of Precipitation, MM = Missing Value Source: NWS Daily Summary

Daily Weather History Graph

Daily Weather History Graph

Search for Another Location

Airport or City:

Trip Planner

Search our weather history database for the weather conditions in past years. The results will help you decide how hot, cold, wet, or windy it might be!

Date:

Astronomy

Aug. 02, 2014 Rise Set
Actual Time 6:50 AM EDT 8:37 PM EDT
Civil Twilight 6:23 AM EDT 9:05 PM EDT
Nautical Twilight 5:50 AM EDT 9:37 PM EDT
Astronomical Twilight 5:15 AM EDT 10:12 PM EDT
Moon 12:51 PM EDT (8/2) No Moon Set
Length of Visible Light 14h 41m
Length of Day
13h 47m
Waxing Crescent, 36% of the Moon is Illuminated
Aug 2
Waxing Crescent
Aug 3
First Quarter
Aug 10
Full
Aug 17
Last Quarter
Aug 25
New

Hourly Weather History & Observations

Time (EDT) Temp. Heat Index Dew Point Humidity Pressure Visibility Wind Dir Wind Speed Gust Speed Precip Events Conditions
12:58 AM 69.3 °F - 64.4 °F 84% 30.08 in 10.0 mi ENE 4.6 mph - N/A   Partly Cloudy
1:58 AM 68.0 °F - 63.7 °F 86% 30.07 in 10.0 mi Variable 5.8 mph - N/A   Clear
2:58 AM 67.5 °F - 63.9 °F 88% 30.06 in 10.0 mi East 4.6 mph - N/A   Overcast
3:13 AM 68.0 °F - 64.4 °F 88% 30.08 in 10.0 mi ENE 5.8 mph - N/A   Overcast
3:18 AM 68.0 °F - 64.4 °F 88% 30.08 in 10.0 mi ENE 4.6 mph - N/A   Mostly Cloudy
3:28 AM 68.0 °F - 64.4 °F 88% 30.08 in 10.0 mi Variable 6.9 mph - N/A   Mostly Cloudy
3:33 AM 66.2 °F - 64.4 °F 94% 30.08 in 10.0 mi Variable 4.6 mph - N/A   Mostly Cloudy
3:58 AM 66.9 °F - 63.7 °F 89% 30.05 in 10.0 mi Variable 3.5 mph - N/A   Mostly Cloudy
4:58 AM 66.4 °F - 63.9 °F 92% 30.06 in 10.0 mi Variable 3.5 mph - N/A   Mostly Cloudy
5:58 AM 66.6 °F - 64.2 °F 92% 30.05 in 10.0 mi East 5.8 mph - N/A   Overcast
6:58 AM 66.7 °F - 64.4 °F 92% 30.07 in 10.0 mi East 4.6 mph - N/A   Overcast
7:19 AM 66.2 °F - 64.4 °F 94% 30.10 in 10.0 mi Variable 4.6 mph - N/A   Mostly Cloudy
7:58 AM 67.1 °F - 64.4 °F 91% 30.08 in 10.0 mi Variable 3.5 mph - N/A   Overcast
8:12 AM 68.0 °F - 64.4 °F 88% 30.11 in 10.0 mi Variable 4.6 mph - N/A   Overcast
8:26 AM 68.0 °F - 64.4 °F 88% 30.11 in 10.0 mi East 3.5 mph - N/A   Overcast
8:51 AM 68.0 °F - 64.4 °F 88% 30.11 in 10.0 mi ENE 5.8 mph - N/A   Light Drizzle
8:58 AM 68.4 °F - 65.1 °F 89% 30.09 in 10.0 mi East 3.5 mph - 0.00 in   Light Drizzle
9:06 AM 68.0 °F - 64.4 °F 88% 30.11 in 10.0 mi Variable 5.8 mph - N/A   Mostly Cloudy
9:27 AM 69.8 °F - 66.2 °F 88% 30.11 in 10.0 mi Variable 5.8 mph - N/A   Mostly Cloudy
9:58 AM 71.1 °F - 65.5 °F 82% 30.10 in 10.0 mi Variable 3.5 mph - 0.00 in   Mostly Cloudy
10:58 AM 73.0 °F - 66.4 °F 80% 30.10 in 10.0 mi East 5.8 mph - N/A   Mostly Cloudy
11:58 AM 75.4 °F - 67.3 °F 76% 30.10 in 10.0 mi Variable 1.2 mph - N/A   Mostly Cloudy
12:58 PM 77.5 °F - 67.6 °F 71% 30.09 in 10.0 mi Variable 3.5 mph - N/A   Mostly Cloudy
1:58 PM 79.3 °F - 68.0 °F 68% 30.08 in 10.0 mi NNE 4.6 mph - N/A   Mostly Cloudy
2:58 PM 80.4 °F 83.0 °F 67.5 °F 65% 30.07 in 10.0 mi Variable 2.3 mph - N/A   Mostly Cloudy
3:58 PM 81.9 °F 84.8 °F 68.2 °F 63% 30.04 in 10.0 mi East 3.5 mph - N/A   Mostly Cloudy
4:58 PM 82.2 °F 85.1 °F 67.8 °F 62% 30.04 in 10.0 mi East 5.8 mph - N/A   Mostly Cloudy
5:58 PM 82.8 °F 85.1 °F 66.4 °F 58% 30.04 in 10.0 mi NE 3.5 mph - N/A   Mostly Cloudy
6:58 PM 81.1 °F 83.4 °F 66.7 °F 61% 30.04 in 10.0 mi East 5.8 mph - N/A   Mostly Cloudy
7:58 PM 78.4 °F - 69.6 °F 74% 30.05 in 10.0 mi East 8.1 mph - N/A   Mostly Cloudy
8:04 PM 77.0 °F - 69.8 °F 78% 30.07 in 7.0 mi East 6.9 mph - N/A Rain Light Rain Showers
8:30 PM 75.2 °F - 69.8 °F 83% 30.06 in 7.0 mi East 4.6 mph - N/A   Mostly Cloudy
8:58 PM 74.8 °F - 70.2 °F 85% 30.04 in 10.0 mi Variable 2.3 mph - 0.01 in   Mostly Cloudy
9:58 PM 73.9 °F - 70.0 °F 87% 30.06 in 10.0 mi ESE 8.1 mph - N/A   Mostly Cloudy
10:58 PM 72.3 °F - 69.4 °F 91% 30.08 in 10.0 mi East 3.5 mph - N/A   Mostly Cloudy
11:58 PM 71.1 °F - 68.0 °F 90% 30.08 in 10.0 mi East 3.5 mph - N/A   Clear